Wetterdaten: Dienstag, 30.06.2015
Datum Zeit Temp. A. Feuchte A. Luftdruck Regen Wind Richtung Richtung Sonnenschein ET UV Solar Taupunkt Windchill Windben Empfang
30.06.2015 00:00 14,9 C 86 % 1021,4 hPa 0,0 l/m 0,0 km/h (0 Bft) NO 47 0 min 0,000 mm 0,0 UV-I 0 W/m 12,6 C 14,9 C 0,0 km/h (0 Bft) 0,00 %
30.06.2015 00:05 14,8 C 86 % 1021,4 hPa 0,0 l/m 0,0 km/h (0 Bft) NO 43 0 min 0,000 mm 0,0 UV-I 0 W/m 12,5 C 14,8 C 0,0 km/h (0 Bft) 0,00 %
30.06.2015 00:10 14,7 C 86 % 1021,5 hPa 0,0 l/m 0,0 km/h (0 Bft) NO 42 0 min 0,000 mm 0,0 UV-I 0 W/m 12,4 C 14,7 C 0,0 km/h (0 Bft) 0,00 %
30.06.2015 00:15 14,6 C 87 % 1021,5 hPa 0,0 l/m 0,0 km/h (0 Bft) NO 37 0 min 0,000 mm 0,0 UV-I 0 W/m 12,5 C 14,6 C 0,0 km/h (0 Bft) 0,00 %
30.06.2015 00:20 14,6 C 88 % 1021,4 hPa 0,0 l/m 0,0 km/h (0 Bft) NO 44 0 min 0,000 mm 0,0 UV-I 0 W/m 12,6 C 14,6 C 0,0 km/h (0 Bft) 0,00 %
30.06.2015 00:25 14,5 C 89 % 1021,3 hPa 0,0 l/m 0,0 km/h (0 Bft) O-NO 68 0 min 0,000 mm 0,0 UV-I 0 W/m 12,7 C 14,5 C 0,0 km/h (0 Bft) 0,00 %
30.06.2015 00:30 14,4 C 90 % 1021,5 hPa 0,0 l/m 0,0 km/h (0 Bft) O-NO 61 0 min 0,000 mm 0,0 UV-I 0 W/m 12,8 C 14,4 C 0,0 km/h (0 Bft) 0,00 %
30.06.2015 00:35 14,3 C 90 % 1021,5 hPa 0,0 l/m 0,0 km/h (0 Bft) O-NO 61 0 min 0,000 mm 0,0 UV-I 0 W/m 12,7 C 14,3 C 0,0 km/h (0 Bft) 0,00 %
30.06.2015 00:40 14,3 C 90 % 1021,6 hPa 0,0 l/m 0,0 km/h (0 Bft) O-NO 61 0 min 0,000 mm 0,0 UV-I 0 W/m 12,7 C 14,3 C 0,0 km/h (0 Bft) 0,00 %
30.06.2015 00:45 14,2 C 90 % 1021,6 hPa 0,0 l/m 0,0 km/h (0 Bft) O-NO 61 0 min 0,000 mm 0,0 UV-I 0 W/m 12,6 C 14,2 C 0,0 km/h (0 Bft) 0,00 %
30.06.2015 00:50 14,2 C 91 % 1021,5 hPa 0,0 l/m 0,0 km/h (0 Bft) NO 47 0 min 0,000 mm 0,0 UV-I 0 W/m 12,8 C 14,2 C 0,0 km/h (0 Bft) 0,00 %
30.06.2015 00:55 14,1 C 91 % 1021,8 hPa 0,0 l/m 0,0 km/h (0 Bft) O-SO 102 0 min 0,000 mm 0,0 UV-I 0 W/m 12,7 C 14,1 C 0,0 km/h (0 Bft) 0,00 %
30.06.2015 01:00 14,0 C 91 % 1021,7 hPa 0,0 l/m 0,0 km/h (0 Bft) O-NO 67 0 min 0,000 mm 0,0 UV-I 0 W/m 12,6 C 14,0 C 0,0 km/h (0 Bft) 0,00 %
30.06.2015 01:05 14,1 C 91 % 1021,7 hPa 0,0 l/m 0,0 km/h (0 Bft) NO 50 0 min 0,000 mm 0,0 UV-I 0 W/m 12,7 C 14,1 C 0,0 km/h (0 Bft) 0,00 %
30.06.2015 01:10 14,2 C 91 % 1021,5 hPa 0,0 l/m 0,0 km/h (0 Bft) O-SO 115 0 min 0,000 mm 0,0 UV-I 0 W/m 12,8 C 14,2 C 0,0 km/h (0 Bft) 0,00 %
30.06.2015 01:15 14,3 C 91 % 1021,6 hPa 0,0 l/m 1,4 km/h (1 Bft) O 99 0 min 0,000 mm 0,0 UV-I 0 W/m 12,8 C 14,3 C 4,0 km/h (1 Bft) 0,00 %
30.06.2015 01:20 14,4 C 90 % 1021,6 hPa 0,0 l/m 0,0 km/h (0 Bft) NO 54 0 min 0,000 mm 0,0 UV-I 0 W/m 12,8 C 14,4 C 0,0 km/h (0 Bft) 0,00 %
30.06.2015 01:25 14,4 C 90 % 1021,6 hPa 0,0 l/m 0,0 km/h (0 Bft) NO 47 0 min 0,000 mm 0,0 UV-I 0 W/m 12,8 C 14,4 C 0,0 km/h (0 Bft) 0,00 %
30.06.2015 01:30 14,5 C 90 % 1021,7 hPa 0,0 l/m 0,0 km/h (0 Bft) NO 45 0 min 0,000 mm 0,0 UV-I 0 W/m 12,9 C 14,5 C 0,0 km/h (0 Bft) 0,00 %
30.06.2015 01:35 14,5 C 89 % 1021,7 hPa 0,0 l/m 0,0 km/h (0 Bft) O-NO 69 0 min 0,000 mm 0,0 UV-I 0 W/m 12,7 C 14,5 C 0,0 km/h (0 Bft) 0,00 %
30.06.2015 01:40 14,4 C 90 % 1021,7 hPa 0,0 l/m 0,0 km/h (0 Bft) O 88 0 min 0,000 mm 0,0 UV-I 0 W/m 12,8 C 14,4 C 0,0 km/h (0 Bft) 0,00 %
30.06.2015 01:45 14,3 C 90 % 1021,6 hPa 0,0 l/m 0,0 km/h (0 Bft) O-NO 77 0 min 0,000 mm 0,0 UV-I 0 W/m 12,7 C 14,3 C 0,0 km/h (0 Bft) 0,00 %
30.06.2015 01:50 14,4 C 89 % 1021,6 hPa 0,0 l/m 0,0 km/h (0 Bft) NO 45 0 min 0,000 mm 0,0 UV-I 0 W/m 12,6 C 14,4 C 0,0 km/h (0 Bft) 0,00 %
30.06.2015 01:55 14,4 C 89 % 1021,7 hPa 0,0 l/m 0,0 km/h (0 Bft) N-NO 25 0 min 0,000 mm 0,0 UV-I 0 W/m 12,6 C 14,4 C 0,0 km/h (0 Bft) 0,00 %
30.06.2015 02:00 14,3 C 88 % 1021,5 hPa 0,0 l/m 0,0 km/h (0 Bft) N-NO 33 0 min 0,000 mm 0,0 UV-I 0 W/m 12,3 C 14,3 C 0,0 km/h (0 Bft) 0,00 %
30.06.2015 02:05 14,2 C 89 % 1021,6 hPa 0,0 l/m 0,0 km/h (0 Bft) NO 37 0 min 0,000 mm 0,0 UV-I 0 W/m 12,4 C 14,2 C 0,0 km/h (0 Bft) 0,00 %
30.06.2015 02:10 14,1 C 90 % 1021,7 hPa 0,0 l/m 0,0 km/h (0 Bft) NO 37 0 min 0,000 mm 0,0 UV-I 0 W/m 12,5 C 14,1 C 0,0 km/h (0 Bft) 0,00 %
30.06.2015 02:15 14,1 C 90 % 1021,5 hPa 0,0 l/m 0,0 km/h (0 Bft) O-NO 58 0 min 0,000 mm 0,0 UV-I 0 W/m 12,5 C 14,1 C 0,0 km/h (0 Bft) 0,00 %
30.06.2015 02:20 14,1 C 90 % 1021,7 hPa 0,0 l/m 0,0 km/h (0 Bft) N 352 0 min 0,000 mm 0,0 UV-I 0 W/m 12,5 C 14,1 C 0,0 km/h (0 Bft) 0,00 %
30.06.2015 02:25 14,1 C 90 % 1021,7 hPa 0,0 l/m 0,0 km/h (0 Bft) N 11 0 min 0,000 mm 0,0 UV-I 0 W/m 12,5 C 14,1 C 0,0 km/h (0 Bft) 0,00 %
30.06.2015 02:30 14,2 C 90 % 1021,5 hPa 0,0 l/m 0,0 km/h (0 Bft) N-NW 347 0 min 0,000 mm 0,0 UV-I 0 W/m 12,6 C 14,2 C 0,0 km/h (0 Bft) 0,00 %
30.06.2015 02:35 14,4 C 90 % 1021,6 hPa 0,0 l/m 0,0 km/h (0 Bft) N 356 0 min 0,000 mm 0,0 UV-I 0 W/m 12,8 C 14,4 C 0,0 km/h (0 Bft) 0,00 %
30.06.2015 02:40 14,4 C 90 % 1021,4 hPa 0,0 l/m 0,7 km/h (0 Bft) SO 133 0 min 0,000 mm 0,0 UV-I 0 W/m 12,8 C 14,4 C 4,0 km/h (1 Bft) 0,00 %
30.06.2015 02:45 14,4 C 89 % 1021,4 hPa 0,0 l/m 0,0 km/h (0 Bft) N-NO 22 0 min 0,000 mm 0,0 UV-I 0 W/m 12,6 C 14,4 C 0,0 km/h (0 Bft) 0,00 %
30.06.2015 02:50 14,5 C 89 % 1021,3 hPa 0,0 l/m 0,0 km/h (0 Bft) N 351 0 min 0,000 mm 0,0 UV-I 0 W/m 12,7 C 14,5 C 0,0 km/h (0 Bft) 0,00 %
30.06.2015 02:55 14,5 C 89 % 1021,2 hPa 0,0 l/m 0,0 km/h (0 Bft) O-SO 117 0 min 0,000 mm 0,0 UV-I 0 W/m 12,7 C 14,5 C 0,0 km/h (0 Bft) 0,00 %
30.06.2015 03:00 14,5 C 89 % 1021,1 hPa 0,0 l/m 0,7 km/h (0 Bft) O 95 0 min 0,000 mm 0,0 UV-I 0 W/m 12,7 C 14,5 C 4,0 km/h (1 Bft) 0,00 %
30.06.2015 03:05 14,5 C 89 % 1021,3 hPa 0,0 l/m 0,0 km/h (0 Bft) NO 41 0 min 0,000 mm 0,0 UV-I 0 W/m 12,7 C 14,5 C 0,0 km/h (0 Bft) 0,00 %
30.06.2015 03:10 14,5 C 89 % 1021,2 hPa 0,0 l/m 0,0 km/h (0 Bft) N 355 0 min 0,000 mm 0,0 UV-I 0 W/m 12,7 C 14,5 C 0,0 km/h (0 Bft) 0,00 %
30.06.2015 03:15 14,4 C 90 % 1021,3 hPa 0,0 l/m 0,0 km/h (0 Bft) NO 35 0 min 0,000 mm 0,0 UV-I 0 W/m 12,8 C 14,4 C 0,0 km/h (0 Bft) 0,00 %
30.06.2015 03:20 14,3 C 90 % 1021,2 hPa 0,0 l/m 0,0 km/h (0 Bft) N 355 0 min 0,000 mm 0,0 UV-I 0 W/m 12,7 C 14,3 C 0,0 km/h (0 Bft) 0,00 %
30.06.2015 03:25 14,2 C 90 % 1021,0 hPa 0,0 l/m 0,0 km/h (0 Bft) NO 48 0 min 0,000 mm 0,0 UV-I 0 W/m 12,6 C 14,2 C 0,0 km/h (0 Bft) 0,00 %
30.06.2015 03:30 14,2 C 91 % 1020,9 hPa 0,0 l/m 0,0 km/h (0 Bft) NO 41 0 min 0,000 mm 0,0 UV-I 0 W/m 12,8 C 14,2 C 0,0 km/h (0 Bft) 0,00 %
30.06.2015 03:35 14,2 C 91 % 1021,0 hPa 0,0 l/m 0,0 km/h (0 Bft) N 357 0 min 0,000 mm 0,0 UV-I 0 W/m 12,8 C 14,2 C 0,0 km/h (0 Bft) 0,00 %
30.06.2015 03:40 14,2 C 91 % 1021,0 hPa 0,0 l/m 0,0 km/h (0 Bft) N-NO 28 0 min 0,000 mm 0,0 UV-I 0 W/m 12,8 C 14,2 C 0,0 km/h (0 Bft) 0,00 %
30.06.2015 03:45 14,2 C 91 % 1020,9 hPa 0,0 l/m 0,0 km/h (0 Bft) NO 44 0 min 0,000 mm 0,0 UV-I 0 W/m 12,8 C 14,2 C 0,0 km/h (0 Bft) 0,00 %
30.06.2015 03:50 14,1 C 91 % 1020,9 hPa 0,0 l/m 0,0 km/h (0 Bft) NO 44 0 min 0,000 mm 0,0 UV-I 0 W/m 12,7 C 14,1 C 0,0 km/h (0 Bft) 0,00 %
30.06.2015 03:55 13,9 C 92 % 1020,7 hPa 0,0 l/m 0,0 km/h (0 Bft) NO 41 0 min 0,000 mm 0,0 UV-I 0 W/m 12,6 C 13,9 C 0,0 km/h (0 Bft) 0,00 %
30.06.2015 04:00 13,8 C 92 % 1020,9 hPa 0,0 l/m 0,0 km/h (0 Bft) N 0 0 min 0,000 mm 0,0 UV-I 0 W/m 12,5 C 13,8 C 0,0 km/h (0 Bft) 0,00 %
30.06.2015 04:05 13,7 C 93 % 1020,8 hPa 0,0 l/m 0,0 km/h (0 Bft) NO 42 0 min 0,000 mm 0,0 UV-I 0 W/m 12,6 C 13,7 C 0,0 km/h (0 Bft) 0,00 %
30.06.2015 04:10 13,7 C 93 % 1020,8 hPa 0,0 l/m 0,0 km/h (0 Bft) NO 49 0 min 0,000 mm 0,0 UV-I 0 W/m 12,6 C 13,7 C 0,0 km/h (0 Bft) 0,00 %
30.06.2015 04:15 13,6 C 93 % 1020,7 hPa 0,0 l/m 0,0 km/h (0 Bft) NO 44 0 min 0,000 mm 0,0 UV-I 0 W/m 12,5 C 13,6 C 0,0 km/h (0 Bft) 0,00 %
30.06.2015 04:20 13,5 C 93 % 1020,7 hPa 0,0 l/m 0,0 km/h (0 Bft) N-NO 32 0 min 0,000 mm 0,0 UV-I 0 W/m 12,4 C 13,5 C 0,0 km/h (0 Bft) 0,00 %
30.06.2015 04:25 13,4 C 93 % 1020,8 hPa 0,0 l/m 0,0 km/h (0 Bft) N 357 0 min 0,000 mm 0,0 UV-I 0 W/m 12,3 C 13,4 C 0,0 km/h (0 Bft) 0,00 %
30.06.2015 04:30 13,3 C 94 % 1020,7 hPa 0,0 l/m 0,0 km/h (0 Bft) NO 44 0 min 0,000 mm 0,0 UV-I 0 W/m 12,4 C 13,3 C 0,0 km/h (0 Bft) 0,00 %
30.06.2015 04:35 13,2 C 94 % 1020,9 hPa 0,0 l/m 0,0 km/h (0 Bft) N 356 0 min 0,000 mm 0,0 UV-I 0 W/m 12,3 C 13,2 C 0,0 km/h (0 Bft) 0,00 %
30.06.2015 04:40 13,1 C 94 % 1020,8 hPa 0,0 l/m 0,0 km/h (0 Bft) N-NW 348 0 min 0,000 mm 0,0 UV-I 0 W/m 12,2 C 13,1 C 0,0 km/h (0 Bft) 0,00 %
30.06.2015 04:45 13,0 C 95 % 1020,8 hPa 0,0 l/m 0,0 km/h (0 Bft) NO 37 0 min 0,000 mm 0,0 UV-I 0 W/m 12,2 C 13,0 C 0,0 km/h (0 Bft) 0,00 %
30.06.2015 04:50 12,9 C 95 % 1020,9 hPa 0,0 l/m 0,0 km/h (0 Bft) N 349 0 min 0,000 mm 0,0 UV-I 0 W/m 12,1 C 12,9 C 0,0 km/h (0 Bft) 0,00 %
30.06.2015 04:55 12,8 C 95 % 1020,9 hPa 0,0 l/m 0,0 km/h (0 Bft) NO 39 0 min 0,000 mm 0,0 UV-I 0 W/m 12,0 C 12,8 C 0,0 km/h (0 Bft) 0,00 %
30.06.2015 05:00 12,8 C 95 % 1020,9 hPa 0,0 l/m 0,0 km/h (0 Bft) NO 42 0 min 0,000 mm 0,0 UV-I 0 W/m 12,0 C 12,8 C 0,0 km/h (0 Bft) 0,00 %
30.06.2015 05:05 12,7 C 95 % 1021,1 hPa 0,0 l/m 0,0 km/h (0 Bft) NO 42 0 min 0,000 mm 0,0 UV-I 0 W/m 11,9 C 12,7 C 0,0 km/h (0 Bft) 0,00 %
30.06.2015 05:10 12,6 C 96 % 1021,3 hPa 0,0 l/m 0,0 km/h (0 Bft) NO 36 0 min 0,000 mm 0,0 UV-I 0 W/m 12,0 C 12,6 C 0,0 km/h (0 Bft) 0,00 %
30.06.2015 05:15 12,5 C 96 % 1021,5 hPa 0,0 l/m 0,0 km/h (0 Bft) NO 54 0 min 0,000 mm 0,0 UV-I 0 W/m 11,9 C 12,5 C 0,0 km/h (0 Bft) 0,00 %
30.06.2015 05:20 12,4 C 96 % 1021,4 hPa 0,0 l/m 0,0 km/h (0 Bft) O-NO 65 0 min 0,000 mm 0,0 UV-I 2 W/m 11,8 C 12,4 C 0,0 km/h (0 Bft) 0,00 %
30.06.2015 05:25 12,4 C 96 % 1021,3 hPa 0,0 l/m 0,0 km/h (0 Bft) O-NO 61 0 min 0,000 mm 0,0 UV-I 4 W/m 11,8 C 12,4 C 0,0 km/h (0 Bft) 0,00 %
30.06.2015 05:30 12,4 C 96 % 1021,4 hPa 0,0 l/m 0,0 km/h (0 Bft) O 79 0 min 0,000 mm 0,0 UV-I 9 W/m 11,8 C 12,4 C 0,0 km/h (0 Bft) 0,00 %
30.06.2015 05:35 12,4 C 96 % 1021,5 hPa 0,0 l/m 0,0 km/h (0 Bft) NO 48 0 min 0,000 mm 0,0 UV-I 22 W/m 11,8 C 12,4 C 0,0 km/h (0 Bft) 0,00 %
30.06.2015 05:40 12,4 C 97 % 1021,4 hPa 0,0 l/m 0,0 km/h (0 Bft) NO 55 0 min 0,000 mm 0,0 UV-I 32 W/m 11,9 C 12,4 C 0,0 km/h (0 Bft) 0,00 %
30.06.2015 05:45 12,5 C 97 % 1021,5 hPa 0,0 l/m 0,0 km/h (0 Bft) NO 47 5 min 0,000 mm 0,0 UV-I 44 W/m 12,0 C 12,5 C 0,0 km/h (0 Bft) 0,00 %
30.06.2015 05:50 12,7 C 96 % 1021,6 hPa 0,0 l/m 0,0 km/h (0 Bft) NO 47 5 min 0,000 mm 0,0 UV-I 53 W/m 12,1 C 12,7 C 0,0 km/h (0 Bft) 0,00 %
30.06.2015 05:55 13,0 C 96 % 1021,5 hPa 0,0 l/m 0,0 km/h (0 Bft) NO 35 5 min 0,000 mm 0,0 UV-I 70 W/m 12,4 C 13,0 C 0,0 km/h (0 Bft) 0,00 %
30.06.2015 06:00 13,4 C 95 % 1021,4 hPa 0,0 l/m 0,0 km/h (0 Bft) NO 40 5 min 0,000 mm 0,0 UV-I 84 W/m 12,6 C 13,4 C 0,0 km/h (0 Bft) 0,00 %
30.06.2015 06:05 13,9 C 95 % 1021,4 hPa 0,0 l/m 0,0 km/h (0 Bft) NO 39 0 min 0,000 mm 0,0 UV-I 65 W/m 13,1 C 13,9 C 0,0 km/h (0 Bft) 0,00 %
30.06.2015 06:10 14,3 C 94 % 1021,3 hPa 0,0 l/m 0,0 km/h (0 Bft) NO 41 5 min 0,000 mm 0,0 UV-I 90 W/m 13,3 C 14,3 C 0,0 km/h (0 Bft) 0,00 %
30.06.2015 06:15 14,4 C 92 % 1021,3 hPa 0,0 l/m 0,0 km/h (0 Bft) NO 42 5 min 0,000 mm 0,0 UV-I 155 W/m 13,1 C 14,4 C 0,0 km/h (0 Bft) 0,00 %
30.06.2015 06:20 14,6 C 90 % 1021,3 hPa 0,0 l/m 0,0 km/h (0 Bft) NO 36 5 min 0,000 mm 0,0 UV-I 188 W/m 13,0 C 14,6 C 0,0 km/h (0 Bft) 0,00 %
30.06.2015 06:25 15,0 C 86 % 1021,2 hPa 0,0 l/m 0,0 km/h (0 Bft) NO 36 5 min 0,000 mm 1,0 UV-I 211 W/m 12,7 C 15,0 C 0,0 km/h (0 Bft) 0,00 %
30.06.2015 06:30 15,5 C 82 % 1021,2 hPa 0,0 l/m 0,0 km/h (0 Bft) NO 36 5 min 0,000 mm 1,0 UV-I 239 W/m 12,4 C 15,5 C 0,0 km/h (0 Bft) 0,00 %
30.06.2015 06:35 16,1 C 80 % 1021,1 hPa 0,0 l/m 0,0 km/h (0 Bft) NO 43 5 min 0,000 mm 1,0 UV-I 249 W/m 12,6 C 16,1 C 0,0 km/h (0 Bft) 0,00 %
30.06.2015 06:40 16,7 C 78 % 1020,9 hPa 0,0 l/m 0,0 km/h (0 Bft) NO 34 5 min 0,000 mm 1,0 UV-I 193 W/m 12,8 C 16,7 C 0,0 km/h (0 Bft) 0,00 %
30.06.2015 06:45 17,1 C 77 % 1021,0 hPa 0,0 l/m 0,0 km/h (0 Bft) NO 53 5 min 0,000 mm 1,0 UV-I 219 W/m 13,0 C 17,1 C 0,0 km/h (0 Bft) 0,00 %
30.06.2015 06:50 17,3 C 77 % 1020,9 hPa 0,0 l/m 0,0 km/h (0 Bft) NO 43 5 min 0,000 mm 1,0 UV-I 256 W/m 13,2 C 17,3 C 0,0 km/h (0 Bft) 0,00 %
30.06.2015 06:55 17,7 C 74 % 1020,9 hPa 0,0 l/m 0,0 km/h (0 Bft) N-NO 30 5 min 0,000 mm 1,0 UV-I 182 W/m 13,0 C 17,7 C 0,0 km/h (0 Bft) 0,00 %
30.06.2015 07:00 18,0 C 73 % 1020,9 hPa 0,0 l/m 0,0 km/h (0 Bft) N 355 5 min 0,000 mm 1,0 UV-I 191 W/m 13,1 C 18,0 C 0,0 km/h (0 Bft) 0,00 %
30.06.2015 07:05 17,9 C 74 % 1020,9 hPa 0,0 l/m 0,0 km/h (0 Bft) NO 36 5 min 0,000 mm 1,0 UV-I 283 W/m 13,2 C 17,9 C 0,0 km/h (0 Bft) 0,00 %
30.06.2015 07:10 17,8 C 73 % 1020,8 hPa 0,0 l/m 0,0 km/h (0 Bft) N-NO 33 5 min 0,000 mm 1,0 UV-I 282 W/m 12,9 C 17,8 C 0,0 km/h (0 Bft) 0,00 %
30.06.2015 07:15 17,9 C 75 % 1021,0 hPa 0,0 l/m 0,0 km/h (0 Bft) NO 34 5 min 0,000 mm 1,0 UV-I 302 W/m 13,4 C 17,9 C 0,0 km/h (0 Bft) 0,00 %
30.06.2015 07:20 17,9 C 75 % 1020,8 hPa 0,0 l/m 0,0 km/h (0 Bft) NO 35 5 min 0,000 mm 1,0 UV-I 336 W/m 13,4 C 17,9 C 0,0 km/h (0 Bft) 0,00 %
30.06.2015 07:25 17,9 C 75 % 1020,8 hPa 0,0 l/m 0,0 km/h (0 Bft) N-NO 31 5 min 0,000 mm 1,0 UV-I 309 W/m 13,4 C 17,9 C 0,0 km/h (0 Bft) 0,00 %
30.06.2015 07:30 18,2 C 73 % 1020,8 hPa 0,0 l/m 0,0 km/h (0 Bft) O-NO 69 5 min 0,000 mm 1,0 UV-I 288 W/m 13,3 C 18,2 C 0,0 km/h (0 Bft) 0,00 %
30.06.2015 07:35 18,6 C 70 % 1020,6 hPa 0,0 l/m 0,0 km/h (0 Bft) N 356 5 min 0,000 mm 1,0 UV-I 324 W/m 13,0 C 18,6 C 0,0 km/h (0 Bft) 0,00 %
30.06.2015 07:40 18,9 C 70 % 1020,8 hPa 0,0 l/m 0,0 km/h (0 Bft) N 351 5 min 0,000 mm 1,0 UV-I 357 W/m 13,3 C 18,9 C 0,0 km/h (0 Bft) 0,00 %
30.06.2015 07:45 18,9 C 72 % 1020,7 hPa 0,0 l/m 0,0 km/h (0 Bft) NO 36 5 min 0,000 mm 1,0 UV-I 372 W/m 13,7 C 18,9 C 0,0 km/h (0 Bft) 0,00 %
30.06.2015 07:50 18,7 C 73 % 1020,7 hPa 0,0 l/m 0,0 km/h (0 Bft) NO 39 5 min 0,000 mm 1,0 UV-I 238 W/m 13,8 C 18,7 C 0,0 km/h (0 Bft) 0,00 %
30.06.2015 07:55 18,5 C 73 % 1020,6 hPa 0,0 l/m 0,0 km/h (0 Bft) N-NO 31 5 min 0,000 mm 1,0 UV-I 364 W/m 13,6 C 18,5 C 0,0 km/h (0 Bft) 0,00 %
30.06.2015 08:00 18,5 C 71 % 1020,7 hPa 0,0 l/m 0,0 km/h (0 Bft) N 350 5 min 0,000 mm 1,0 UV-I 417 W/m 13,1 C 18,5 C 0,0 km/h (0 Bft) 0,00 %
30.06.2015 08:05 18,9 C 70 % 1020,7 hPa 0,0 l/m 0,0 km/h (0 Bft) N 355 5 min 0,000 mm 1,0 UV-I 402 W/m 13,3 C 18,9 C 0,0 km/h (0 Bft) 0,00 %
30.06.2015 08:10 19,2 C 70 % 1020,7 hPa 0,0 l/m 0,0 km/h (0 Bft) NO 38 5 min 0,000 mm 1,0 UV-I 431 W/m 13,6 C 19,2 C 0,0 km/h (0 Bft) 0,00 %
30.06.2015 08:15 19,5 C 68 % 1020,6 hPa 0,0 l/m 0,0 km/h (0 Bft) NO 49 5 min 0,000 mm 2,0 UV-I 391 W/m 13,4 C 19,5 C 0,0 km/h (0 Bft) 0,00 %
30.06.2015 08:20 20,0 C 66 % 1020,3 hPa 0,0 l/m 0,0 km/h (0 Bft) N 352 5 min 0,000 mm 2,0 UV-I 420 W/m 13,4 C 20,0 C 0,0 km/h (0 Bft) 0,00 %
30.06.2015 08:25 20,2 C 64 % 1020,4 hPa 0,0 l/m 0,0 km/h (0 Bft) N 5 5 min 0,000 mm 2,0 UV-I 477 W/m 13,2 C 20,2 C 0,0 km/h (0 Bft) 0,00 %
30.06.2015 08:30 20,3 C 66 % 1020,3 hPa 0,0 l/m 0,0 km/h (0 Bft) N-NO 14 5 min 0,000 mm 2,0 UV-I 385 W/m 13,7 C 20,3 C 0,0 km/h (0 Bft) 0,00 %
30.06.2015 08:35 20,5 C 64 % 1020,5 hPa 0,0 l/m 0,4 km/h (0 Bft) W-SW 257 5 min 0,000 mm 2,0 UV-I 351 W/m 13,5 C 20,5 C 4,0 km/h (1 Bft) 0,00 %
30.06.2015 08:40 20,6 C 64 % 1020,3 hPa 0,0 l/m 0,4 km/h (0 Bft) N-NO 17 0 min 0,000 mm 2,0 UV-I 276 W/m 13,5 C 20,6 C 4,0 km/h (1 Bft) 0,00 %
30.06.2015 08:45 20,7 C 62 % 1020,1 hPa 0,0 l/m 0,0 km/h (0 Bft) N 355 5 min 0,000 mm 2,0 UV-I 489 W/m 13,2 C 20,7 C 0,0 km/h (0 Bft) 0,00 %
30.06.2015 08:50 20,9 C 61 % 1020,1 hPa 0,0 l/m 0,4 km/h (0 Bft) N 3 5 min 0,000 mm 2,0 UV-I 502 W/m 13,1 C 20,9 C 4,0 km/h (1 Bft) 0,00 %
30.06.2015 08:55 21,1 C 61 % 1020,3 hPa 0,0 l/m 0,0 km/h (0 Bft) N 352 5 min 0,000 mm 2,0 UV-I 492 W/m 13,3 C 21,1 C 0,0 km/h (0 Bft) 0,00 %
30.06.2015 09:00 21,5 C 61 % 1020,2 hPa 0,0 l/m 0,0 km/h (0 Bft) NO 38 5 min 0,000 mm 2,0 UV-I 510 W/m 13,7 C 21,5 C 0,0 km/h (0 Bft) 0,00 %
30.06.2015 09:05 21,9 C 62 % 1020,1 hPa 0,0 l/m 0,0 km/h (0 Bft) NO 56 5 min 0,000 mm 2,0 UV-I 532 W/m 14,3 C 21,9 C 0,0 km/h (0 Bft) 0,00 %
30.06.2015 09:10 22,2 C 62 % 1020,1 hPa 0,0 l/m 0,0 km/h (0 Bft) NO 39 5 min 0,000 mm 2,0 UV-I 522 W/m 14,6 C 22,2 C 0,0 km/h (0 Bft) 0,00 %
30.06.2015 09:15 22,6 C 56 % 1019,9 hPa 0,0 l/m 0,0 km/h (0 Bft) NO 46 5 min 0,000 mm 2,0 UV-I 559 W/m 13,4 C 22,6 C 0,0 km/h (0 Bft) 0,00 %
30.06.2015 09:20 22,9 C 58 % 1019,9 hPa 0,0 l/m 0,0 km/h (0 Bft) NO 47 5 min 0,000 mm 2,0 UV-I 517 W/m 14,2 C 22,9 C 0,0 km/h (0 Bft) 0,00 %
30.06.2015 09:25 23,2 C 56 % 1019,9 hPa 0,0 l/m 0,0 km/h (0 Bft) O-NO 58 5 min 0,000 mm 2,0 UV-I 532 W/m 13,9 C 23,2 C 0,0 km/h (0 Bft) 0,00 %
30.06.2015 09:30 23,2 C 57 % 1020,2 hPa 0,0 l/m 0,0 km/h (0 Bft) N-NO 23 5 min 0,000 mm 2,0 UV-I 581 W/m 14,2 C 23,2 C 0,0 km/h (0 Bft) 0,00 %
30.06.2015 09:35 23,1 C 56 % 1020,1 hPa 0,0 l/m 0,0 km/h (0 Bft) NO 40 5 min 0,000 mm 2,0 UV-I 586 W/m 13,8 C 23,1 C 0,0 km/h (0 Bft) 0,00 %
30.06.2015 09:40 23,7 C 53 % 1020,0 hPa 0,0 l/m 0,0 km/h (0 Bft) N-NW 347 5 min 0,000 mm 2,0 UV-I 608 W/m 13,5 C 23,7 C 0,0 km/h (0 Bft) 0,00 %
30.06.2015 09:45 24,2 C 52 % 1019,8 hPa 0,0 l/m 0,0 km/h (0 Bft) O-NO 67 5 min 0,000 mm 3,0 UV-I 602 W/m 13,7 C 24,2 C 0,0 km/h (0 Bft) 0,00 %
30.06.2015 09:50 24,3 C 53 % 1019,9 hPa 0,0 l/m 0,0 km/h (0 Bft) O-NO 65 5 min 0,000 mm 3,0 UV-I 607 W/m 14,1 C 24,3 C 0,0 km/h (0 Bft) 0,00 %
30.06.2015 09:55 24,6 C 50 % 1019,8 hPa 0,0 l/m 0,0 km/h (0 Bft) NO 55 5 min 0,000 mm 3,0 UV-I 618 W/m 13,5 C 24,6 C 0,0 km/h (0 Bft) 0,00 %
30.06.2015 10:00 24,9 C 50 % 1019,8 hPa 0,0 l/m 1,8 km/h (1 Bft) N 1 5 min 0,000 mm 3,0 UV-I 617 W/m 13,7 C 24,9 C 4,0 km/h (1 Bft) 0,00 %
30.06.2015 10:05 24,9 C 51 % 1019,8 hPa 0,0 l/m 0,0 km/h (0 Bft) N-NO 20 5 min 0,000 mm 3,0 UV-I 647 W/m 14,1 C 24,9 C 0,0 km/h (0 Bft) 0,00 %
30.06.2015 10:10 24,9 C 49 % 1019,9 hPa 0,0 l/m 0,0 km/h (0 Bft) O-NO 63 5 min 0,000 mm 3,0 UV-I 613 W/m 13,4 C 24,9 C 0,0 km/h (0 Bft) 0,00 %
30.06.2015 10:15 24,9 C 52 % 1019,8 hPa 0,0 l/m 0,0 km/h (0 Bft) N-NO 25 5 min 0,000 mm 3,0 UV-I 658 W/m 14,4 C 24,9 C 0,0 km/h (0 Bft) 0,00 %
30.06.2015 10:20 24,8 C 54 % 1019,8 hPa 0,0 l/m 0,0 km/h (0 Bft) O 90 5 min 0,000 mm 3,0 UV-I 697 W/m 14,8 C 24,8 C 0,0 km/h (0 Bft) 0,00 %
30.06.2015 10:25 24,6 C 51 % 1019,9 hPa 0,0 l/m 0,0 km/h (0 Bft) NO 35 5 min 0,000 mm 3,0 UV-I 706 W/m 13,8 C 24,6 C 0,0 km/h (0 Bft) 0,00 %
30.06.2015 10:30 24,9 C 51 % 1019,6 hPa 0,0 l/m 2,2 km/h (1 Bft) O 91 5 min 0,000 mm 3,0 UV-I 685 W/m 14,1 C 24,9 C 4,0 km/h (1 Bft) 0,00 %
30.06.2015 10:35 25,1 C 52 % 1019,4 hPa 0,0 l/m 0,0 km/h (0 Bft) O-NO 62 5 min 0,000 mm 3,0 UV-I 743 W/m 14,5 C 25,1 C 0,0 km/h (0 Bft) 0,00 %
30.06.2015 10:40 25,2 C 52 % 1019,6 hPa 0,0 l/m 0,0 km/h (0 Bft) O 95 5 min 0,000 mm 4,0 UV-I 709 W/m 14,6 C 25,2 C 0,0 km/h (0 Bft) 0,00 %
30.06.2015 10:45 25,5 C 50 % 1019,5 hPa 0,0 l/m 0,0 km/h (0 Bft) N 0 5 min 0,000 mm 3,0 UV-I 725 W/m 14,3 C 25,5 C 0,0 km/h (0 Bft) 0,00 %
30.06.2015 10:50 25,5 C 49 % 1019,5 hPa 0,0 l/m 0,0 km/h (0 Bft) NO 48 5 min 0,000 mm 4,0 UV-I 672 W/m 14,0 C 25,5 C 0,0 km/h (0 Bft) 0,00 %
30.06.2015 10:55 25,4 C 48 % 1019,6 hPa 0,0 l/m 0,0 km/h (0 Bft) NO 45 5 min 0,000 mm 3,0 UV-I 712 W/m 13,6 C 25,4 C 0,0 km/h (0 Bft) 0,00 %
30.06.2015 11:00 25,4 C 49 % 1019,7 hPa 0,0 l/m 0,0 km/h (0 Bft) N 352 5 min 0,000 mm 4,0 UV-I 725 W/m 13,9 C 25,4 C 0,0 km/h (0 Bft) 0,00 %
30.06.2015 11:05 25,5 C 49 % 1019,7 hPa 0,0 l/m 0,0 km/h (0 Bft) O-NO 57 5 min 0,000 mm 4,0 UV-I 680 W/m 14,0 C 25,5 C 0,0 km/h (0 Bft) 0,00 %
30.06.2015 11:10 25,4 C 50 % 1019,6 hPa 0,0 l/m 0,4 km/h (0 Bft) N-NO 28 5 min 0,000 mm 4,0 UV-I 754 W/m 14,2 C 25,4 C 4,0 km/h (1 Bft) 0,00 %
30.06.2015 11:15 25,2 C 48 % 1019,6 hPa 0,0 l/m 0,0 km/h (0 Bft) N 8 5 min 0,000 mm 4,0 UV-I 721 W/m 13,4 C 25,2 C 0,0 km/h (0 Bft) 0,00 %
30.06.2015 11:20 25,4 C 49 % 1019,4 hPa 0,0 l/m 0,0 km/h (0 Bft) NO 44 5 min 0,000 mm 4,0 UV-I 755 W/m 13,9 C 25,4 C 0,0 km/h (0 Bft) 0,00 %
30.06.2015 11:25 25,8 C 45 % 1019,3 hPa 0,0 l/m 0,0 km/h (0 Bft) N-NO 18 5 min 0,000 mm 4,0 UV-I 711 W/m 13,0 C 25,8 C 0,0 km/h (0 Bft) 0,00 %
30.06.2015 11:30 25,9 C 44 % 1019,4 hPa 0,0 l/m 0,0 km/h (0 Bft) N-NO 30 5 min 0,000 mm 4,0 UV-I 748 W/m 12,7 C 25,9 C 0,0 km/h (0 Bft) 0,00 %
30.06.2015 11:35 25,9 C 49 % 1019,3 hPa 0,0 l/m 0,0 km/h (0 Bft) O-NO 57 5 min 0,000 mm 4,0 UV-I 798 W/m 14,4 C 25,9 C 0,0 km/h (0 Bft) 0,00 %
30.06.2015 11:40 25,8 C 51 % 1019,2 hPa 0,0 l/m 0,0 km/h (0 Bft) O 81 5 min 0,000 mm 5,0 UV-I 773 W/m 14,9 C 25,8 C 0,0 km/h (0 Bft) 0,00 %
30.06.2015 11:45 25,9 C 46 % 1019,3 hPa 0,0 l/m 0,0 km/h (0 Bft) N-NO 21 5 min 0,000 mm 4,0 UV-I 821 W/m 13,4 C 25,9 C 0,0 km/h (0 Bft) 0,00 %
30.06.2015 11:50 26,1 C 48 % 1019,2 hPa 0,0 l/m 2,9 km/h (1 Bft) N-NW 332 5 min 0,000 mm 4,0 UV-I 783 W/m 14,2 C 26,1 C 4,0 km/h (1 Bft) 0,00 %
30.06.2015 11:55 26,0 C 48 % 1019,2 hPa 0,0 l/m 1,4 km/h (1 Bft) N-NW 345 5 min 0,000 mm 4,0 UV-I 833 W/m 14,1 C 26,0 C 4,0 km/h (1 Bft) 0,00 %
30.06.2015 12:00 25,7 C 47 % 1019,4 hPa 0,0 l/m 7,2 km/h (2 Bft) N-NW 334 5 min 0,000 mm 5,0 UV-I 819 W/m 13,5 C 25,5 C 7,9 km/h (2 Bft) 0,00 %
30.06.2015 12:05 25,7 C 45 % 1019,3 hPa 0,0 l/m 0,0 km/h (0 Bft) NO 44 5 min 0,000 mm 4,0 UV-I 838 W/m 12,9 C 25,7 C 0,0 km/h (0 Bft) 0,00 %
30.06.2015 12:10 26,0 C 44 % 1019,1 hPa 0,0 l/m 0,4 km/h (0 Bft) NO 55 5 min 0,000 mm 5,0 UV-I 850 W/m 12,8 C 26,0 C 4,0 km/h (1 Bft) 0,00 %
30.06.2015 12:15 26,5 C 45 % 1019,0 hPa 0,0 l/m 0,0 km/h (0 Bft) N-NO 27 5 min 0,000 mm 5,0 UV-I 797 W/m 13,6 C 26,5 C 0,0 km/h (0 Bft) 0,00 %
30.06.2015 12:20 26,9 C 44 % 1018,8 hPa 0,0 l/m 0,0 km/h (0 Bft) O-NO 64 5 min 0,000 mm 4,0 UV-I 852 W/m 13,6 C 26,9 C 0,0 km/h (0 Bft) 0,00 %
30.06.2015 12:25 27,1 C 44 % 1018,9 hPa 0,0 l/m 1,4 km/h (1 Bft) W-NW 300 5 min 0,000 mm 5,0 UV-I 849 W/m 13,8 C 27,1 C 4,0 km/h (1 Bft) 0,00 %
30.06.2015 12:30 27,2 C 43 % 1018,9 hPa 0,0 l/m 2,9 km/h (1 Bft) W 276 5 min 0,000 mm 5,0 UV-I 888 W/m 13,5 C 27,2 C 4,0 km/h (1 Bft) 0,00 %
30.06.2015 12:35 27,1 C 42 % 1018,9 hPa 0,0 l/m 0,7 km/h (0 Bft) W-NW 288 5 min 0,000 mm 6,0 UV-I 880 W/m 13,1 C 27,1 C 4,0 km/h (1 Bft) 0,00 %
30.06.2015 12:40 27,0 C 42 % 1019,0 hPa 0,0 l/m 4,0 km/h (1 Bft) W-NW 291 5 min 0,000 mm 6,0 UV-I 840 W/m 13,0 C 27,0 C 7,9 km/h (2 Bft) 0,00 %
30.06.2015 12:45 26,9 C 42 % 1018,9 hPa 0,0 l/m 0,0 km/h (0 Bft) N-NO 12 5 min 0,000 mm 5,0 UV-I 867 W/m 12,9 C 26,9 C 0,0 km/h (0 Bft) 0,00 %
30.06.2015 12:50 26,9 C 43 % 1018,9 hPa 0,0 l/m 0,0 km/h (0 Bft) N-NO 17 5 min 0,000 mm 5,0 UV-I 907 W/m 13,2 C 26,9 C 0,0 km/h (0 Bft) 0,00 %
30.06.2015 12:55 27,0 C 42 % 1018,9 hPa 0,0 l/m 1,4 km/h (1 Bft) NW 320 5 min 0,000 mm 6,0 UV-I 847 W/m 13,0 C 27,0 C 4,0 km/h (1 Bft) 0,00 %
30.06.2015 13:00 27,2 C 41 % 1018,6 hPa 0,0 l/m 0,0 km/h (0 Bft) NO 41 5 min 0,000 mm 6,0 UV-I 951 W/m 12,8 C 27,2 C 0,0 km/h (0 Bft) 0,00 %
30.06.2015 13:05 27,2 C 38 % 1018,8 hPa 0,0 l/m 6,8 km/h (2 Bft) W-NW 289 5 min 0,000 mm 5,0 UV-I 926 W/m 11,6 C 27,1 C 7,9 km/h (2 Bft) 0,00 %
30.06.2015 13:10 27,0 C 38 % 1018,8 hPa 0,0 l/m 2,9 km/h (1 Bft) W-SW 256 5 min 0,000 mm 5,0 UV-I 929 W/m 11,5 C 27,0 C 4,0 km/h (1 Bft) 0,00 %
30.06.2015 13:15 26,8 C 38 % 1018,6 hPa 0,0 l/m 0,0 km/h (0 Bft) NO 36 5 min 0,000 mm 5,0 UV-I 896 W/m 11,3 C 26,8 C 0,0 km/h (0 Bft) 0,00 %
30.06.2015 13:20 26,9 C 42 % 1018,4 hPa 0,0 l/m 5,4 km/h (1 Bft) W-NW 285 5 min 0,000 mm 5,0 UV-I 941 W/m 12,9 C 26,9 C 7,9 km/h (2 Bft) 0,00 %
30.06.2015 13:25 27,2 C 42 % 1018,4 hPa 0,0 l/m 0,0 km/h (0 Bft) O-NO 63 5 min 0,000 mm 5,0 UV-I 945 W/m 13,2 C 27,2 C 0,0 km/h (0 Bft) 0,00 %
30.06.2015 13:30 27,7 C 41 % 1018,5 hPa 0,0 l/m 0,7 km/h (0 Bft) N-NW 339 5 min 0,000 mm 5,0 UV-I 992 W/m 13,2 C 27,7 C 4,0 km/h (1 Bft) 0,00 %
30.06.2015 13:35 28,0 C 41 % 1018,3 hPa 0,0 l/m 0,0 km/h (0 Bft) N-NO 25 5 min 0,000 mm 5,0 UV-I 1009 W/m 13,5 C 28,0 C 0,0 km/h (0 Bft) 0,00 %
30.06.2015 13:40 28,2 C 38 % 1018,3 hPa 0,0 l/m 5,8 km/h (2 Bft) NW 325 5 min 0,000 mm 5,0 UV-I 1015 W/m 12,5 C 28,2 C 7,9 km/h (2 Bft) 0,00 %
30.06.2015 13:45 28,3 C 39 % 1018,2 hPa 0,0 l/m 0,7 km/h (0 Bft) NW 323 5 min 0,000 mm 5,0 UV-I 1051 W/m 13,0 C 28,3 C 4,0 km/h (1 Bft) 0,00 %
30.06.2015 13:50 28,3 C 35 % 1018,1 hPa 0,0 l/m 0,0 km/h (0 Bft) NO 46 5 min 0,000 mm 6,0 UV-I 1055 W/m 11,4 C 28,3 C 0,0 km/h (0 Bft) 0,00 %
30.06.2015 13:55 28,2 C 41 % 1018,1 hPa 0,0 l/m 0,0 km/h (0 Bft) N-NW 332 5 min 0,000 mm 5,0 UV-I 1092 W/m 13,7 C 28,2 C 0,0 km/h (0 Bft) 0,00 %
30.06.2015 14:00 28,3 C 39 % 1018,0 hPa 0,0 l/m 4,3 km/h (1 Bft) NW 320 5 min 0,000 mm 5,0 UV-I 1137 W/m 13,0 C 28,3 C 7,9 km/h (2 Bft) 0,00 %
30.06.2015 14:05 28,7 C 40 % 1017,9 hPa 0,0 l/m 0,7 km/h (0 Bft) NW 320 5 min 0,000 mm 6,0 UV-I 638 W/m 13,7 C 28,7 C 4,0 km/h (1 Bft) 0,00 %
30.06.2015 14:10 29,0 C 38 % 1017,9 hPa 0,0 l/m 0,0 km/h (0 Bft) N 10 5 min 0,000 mm 3,0 UV-I 1087 W/m 13,2 C 29,0 C 0,0 km/h (0 Bft) 0,00 %
30.06.2015 14:15 28,8 C 34 % 1017,8 hPa 0,0 l/m 0,0 km/h (0 Bft) NO 50 0 min 0,000 mm 5,0 UV-I 461 W/m 11,4 C 28,8 C 0,0 km/h (0 Bft) 0,00 %
30.06.2015 14:20 28,6 C 36 % 1017,7 hPa 0,0 l/m 2,2 km/h (1 Bft) N-NW 338 5 min 0,000 mm 3,0 UV-I 1073 W/m 12,0 C 28,6 C 4,0 km/h (1 Bft) 0,00 %
30.06.2015 14:25 28,8 C 42 % 1017,8 hPa 0,0 l/m 0,0 km/h (0 Bft) N-NO 28 0 min 0,000 mm 3,0 UV-I 379 W/m 14,6 C 28,8 C 0,0 km/h (0 Bft) 0,00 %
30.06.2015 14:30 29,0 C 39 % 1017,7 hPa 0,0 l/m 0,0 km/h (0 Bft) NO 48 0 min 0,000 mm 2,0 UV-I 375 W/m 13,6 C 29,0 C 0,0 km/h (0 Bft) 0,00 %
30.06.2015 14:35 29,0 C 38 % 1017,7 hPa 0,0 l/m 0,0 km/h (0 Bft) N-NO 26 0 min 0,000 mm 2,0 UV-I 424 W/m 13,2 C 29,0 C 0,0 km/h (0 Bft) 0,00 %
30.06.2015 14:40 28,7 C 41 % 1017,5 hPa 0,0 l/m 0,0 km/h (0 Bft) N-NO 25 5 min 0,000 mm 2,0 UV-I 735 W/m 14,1 C 28,7 C 0,0 km/h (0 Bft) 0,00 %
30.06.2015 14:45 28,3 C 37 % 1017,8 hPa 0,0 l/m 0,0 km/h (0 Bft) N-NO 24 5 min 0,000 mm 2,0 UV-I 486 W/m 12,2 C 28,3 C 0,0 km/h (0 Bft) 0,00 %
30.06.2015 14:50 28,1 C 39 % 1017,6 hPa 0,0 l/m 2,2 km/h (1 Bft) N 353 0 min 0,000 mm 2,0 UV-I 323 W/m 12,8 C 28,1 C 4,0 km/h (1 Bft) 0,00 %
30.06.2015 14:55 27,7 C 40 % 1017,5 hPa 0,0 l/m 1,8 km/h (1 Bft) N 351 0 min 0,000 mm 2,0 UV-I 258 W/m 12,9 C 27,7 C 4,0 km/h (1 Bft) 0,00 %
30.06.2015 15:00 26,9 C 40 % 1017,8 hPa 0,0 l/m 0,0 km/h (0 Bft) N-NW 348 0 min 0,000 mm 1,0 UV-I 257 W/m 12,1 C 26,9 C 0,0 km/h (0 Bft) 0,00 %
30.06.2015 15:05 26,4 C 40 % 1017,8 hPa 0,0 l/m 2,9 km/h (1 Bft) N-NW 338 0 min 0,000 mm 1,0 UV-I 251 W/m 11,7 C 26,4 C 7,9 km/h (2 Bft) 0,00 %
30.06.2015 15:10 26,4 C 39 % 1017,7 hPa 0,0 l/m 0,0 km/h (0 Bft) N-NO 30 0 min 0,000 mm 1,0 UV-I 263 W/m 11,3 C 26,4 C 0,0 km/h (0 Bft) 0,00 %
30.06.2015 15:15 26,4 C 40 % 1017,7 hPa 0,0 l/m 0,0 km/h (0 Bft) NO 45 0 min 0,000 mm 1,0 UV-I 255 W/m 11,7 C 26,4 C 0,0 km/h (0 Bft) 0,00 %
30.06.2015 15:20 26,4 C 42 % 1017,7 hPa 0,0 l/m 0,0 km/h (0 Bft) N-NO 31 0 min 0,000 mm 1,0 UV-I 225 W/m 12,4 C 26,4 C 0,0 km/h (0 Bft) 0,00 %
30.06.2015 15:25 26,4 C 41 % 1017,8 hPa 0,0 l/m 0,0 km/h (0 Bft) N 4 0 min 0,000 mm 1,0 UV-I 222 W/m 12,1 C 26,4 C 0,0 km/h (0 Bft) 0,00 %
30.06.2015 15:30 26,4 C 39 % 1017,9 hPa 0,0 l/m 0,0 km/h (0 Bft) NO 39 0 min 0,000 mm 1,0 UV-I 248 W/m 11,3 C 26,4 C 0,0 km/h (0 Bft) 0,00 %
30.06.2015 15:35 26,2 C 43 % 1017,8 hPa 0,0 l/m 0,0 km/h (0 Bft) O 93 0 min 0,000 mm 1,0 UV-I 277 W/m 12,6 C 26,2 C 0,0 km/h (0 Bft) 0,00 %
30.06.2015 15:40 26,0 C 44 % 1018,0 hPa 0,0 l/m 4,0 km/h (1 Bft) NO 42 0 min 0,000 mm 1,0 UV-I 297 W/m 12,8 C 26,0 C 7,9 km/h (2 Bft) 0,00 %
30.06.2015 15:45 25,6 C 47 % 1018,0 hPa 0,0 l/m 0,4 km/h (0 Bft) NO 50 0 min 0,000 mm 1,0 UV-I 343 W/m 13,4 C 25,6 C 4,0 km/h (1 Bft) 0,00 %
30.06.2015 15:50 25,2 C 48 % 1018,0 hPa 0,0 l/m 0,0 km/h (0 Bft) NO 34 5 min 0,000 mm 1,0 UV-I 435 W/m 13,4 C 25,2 C 0,0 km/h (0 Bft) 0,00 %
30.06.2015 15:55 25,3 C 49 % 1018,0 hPa 0,0 l/m 2,2 km/h (1 Bft) NO 53 0 min 0,000 mm 2,0 UV-I 403 W/m 13,8 C 25,3 C 4,0 km/h (1 Bft) 0,00 %
30.06.2015 16:00 25,3 C 51 % 1018,0 hPa 0,0 l/m 0,0 km/h (0 Bft) NO 43 5 min 0,000 mm 2,0 UV-I 434 W/m 14,4 C 25,3 C 0,0 km/h (0 Bft) 0,00 %
30.06.2015 16:05 25,3 C 50 % 1017,8 hPa 0,0 l/m 0,0 km/h (0 Bft) O 89 5 min 0,000 mm 2,0 UV-I 433 W/m 14,1 C 25,3 C 0,0 km/h (0 Bft) 0,00 %
30.06.2015 16:10 25,3 C 49 % 1017,8 hPa 0,0 l/m 3,2 km/h (1 Bft) O-NO 68 5 min 0,000 mm 2,0 UV-I 405 W/m 13,8 C 25,3 C 4,0 km/h (1 Bft) 0,00 %
30.06.2015 16:15 25,4 C 50 % 1017,9 hPa 0,0 l/m 4,3 km/h (1 Bft) O 80 0 min 0,000 mm 2,0 UV-I 381 W/m 14,2 C 25,4 C 7,9 km/h (2 Bft) 0,00 %
30.06.2015 16:20 25,4 C 50 % 1017,8 hPa 0,0 l/m 4,3 km/h (1 Bft) O-NO 66 0 min 0,000 mm 2,0 UV-I 351 W/m 14,2 C 25,4 C 7,9 km/h (2 Bft) 0,00 %
30.06.2015 16:25 25,4 C 50 % 1017,8 hPa 0,0 l/m 0,7 km/h (0 Bft) O-SO 119 0 min 0,000 mm 2,0 UV-I 339 W/m 14,2 C 25,4 C 4,0 km/h (1 Bft) 0,00 %
30.06.2015 16:30 25,4 C 49 % 1017,8 hPa 0,0 l/m 5,4 km/h (1 Bft) O 84 0 min 0,000 mm 2,0 UV-I 294 W/m 13,9 C 25,4 C 7,9 km/h (2 Bft) 0,00 %
30.06.2015 16:35 25,4 C 49 % 1018,0 hPa 0,0 l/m 4,0 km/h (1 Bft) O-SO 117 0 min 0,000 mm 2,0 UV-I 262 W/m 13,9 C 25,4 C 4,0 km/h (1 Bft) 0,00 %
30.06.2015 16:40 25,4 C 50 % 1017,7 hPa 0,0 l/m 1,4 km/h (1 Bft) O 93 0 min 0,000 mm 1,0 UV-I 243 W/m 14,2 C 25,4 C 4,0 km/h (1 Bft) 0,00 %
30.06.2015 16:45 25,3 C 51 % 1017,8 hPa 0,0 l/m 0,7 km/h (0 Bft) O 83 0 min 0,000 mm 1,0 UV-I 232 W/m 14,4 C 25,3 C 4,0 km/h (1 Bft) 0,00 %
30.06.2015 16:50 25,1 C 52 % 1017,7 hPa 0,0 l/m 1,4 km/h (1 Bft) O 94 0 min 0,000 mm 1,0 UV-I 229 W/m 14,5 C 25,1 C 4,0 km/h (1 Bft) 0,00 %
30.06.2015 16:55 24,9 C 50 % 1017,8 hPa 0,0 l/m 4,0 km/h (1 Bft) O 100 0 min 0,000 mm 1,0 UV-I 222 W/m 13,7 C 24,9 C 7,9 km/h (2 Bft) 0,00 %
30.06.2015 17:00 24,8 C 52 % 1017,9 hPa 0,0 l/m 0,0 km/h (0 Bft) NO 36 0 min 0,000 mm 1,0 UV-I 227 W/m 14,3 C 24,8 C 0,0 km/h (0 Bft) 0,00 %
30.06.2015 17:05 24,5 C 52 % 1017,7 hPa 0,0 l/m 1,8 km/h (1 Bft) NO 38 0 min 0,000 mm 1,0 UV-I 229 W/m 14,0 C 24,5 C 4,0 km/h (1 Bft) 0,00 %
30.06.2015 17:10 24,5 C 52 % 1017,7 hPa 0,0 l/m 1,4 km/h (1 Bft) O-SO 105 0 min 0,000 mm 1,0 UV-I 235 W/m 14,0 C 24,5 C 4,0 km/h (1 Bft) 0,00 %
30.06.2015 17:15 24,5 C 52 % 1017,6 hPa 0,0 l/m 3,2 km/h (1 Bft) O-NO 64 0 min 0,000 mm 1,0 UV-I 254 W/m 14,0 C 24,5 C 7,9 km/h (2 Bft) 0,00 %
30.06.2015 17:20 24,5 C 51 % 1017,5 hPa 0,0 l/m 5,4 km/h (1 Bft) O 79 0 min 0,000 mm 1,0 UV-I 253 W/m 13,7 C 24,5 C 7,9 km/h (2 Bft) 0,00 %
30.06.2015 17:25 24,4 C 52 % 1017,7 hPa 0,0 l/m 0,0 km/h (0 Bft) NO 56 0 min 0,000 mm 1,0 UV-I 245 W/m 13,9 C 24,4 C 0,0 km/h (0 Bft) 0,00 %
30.06.2015 17:30 24,4 C 51 % 1017,4 hPa 0,0 l/m 2,9 km/h (1 Bft) O-NO 72 0 min 0,000 mm 1,0 UV-I 252 W/m 13,6 C 24,4 C 7,9 km/h (2 Bft) 0,00 %
30.06.2015 17:35 24,4 C 52 % 1017,5 hPa 0,0 l/m 2,9 km/h (1 Bft) O 82 0 min 0,000 mm 1,0 UV-I 252 W/m 13,9 C 24,4 C 4,0 km/h (1 Bft) 0,00 %
30.06.2015 17:40 24,4 C 52 % 1017,6 hPa 0,0 l/m 0,0 km/h (0 Bft) O 84 0 min 0,000 mm 1,0 UV-I 235 W/m 13,9 C 24,4 C 0,0 km/h (0 Bft) 0,00 %
30.06.2015 17:45 24,4 C 52 % 1017,5 hPa 0,0 l/m 2,2 km/h (1 Bft) NO 48 0 min 0,000 mm 1,0 UV-I 220 W/m 13,9 C 24,4 C 4,0 km/h (1 Bft) 0,00 %
30.06.2015 17:50 24,3 C 53 % 1017,5 hPa 0,0 l/m 1,4 km/h (1 Bft) O-SO 102 0 min 0,000 mm 1,0 UV-I 215 W/m 14,1 C 24,3 C 4,0 km/h (1 Bft) 0,00 %
30.06.2015 17:55 24,3 C 53 % 1017,2 hPa 0,0 l/m 2,9 km/h (1 Bft) SO 131 0 min 0,000 mm 1,0 UV-I 227 W/m 14,1 C 24,3 C 4,0 km/h (1 Bft) 0,00 %
30.06.2015 18:00 24,2 C 55 % 1017,5 hPa 0,0 l/m 0,4 km/h (0 Bft) O-NO 61 5 min 0,000 mm 1,0 UV-I 264 W/m 14,6 C 24,2 C 4,0 km/h (1 Bft) 0,00 %
30.06.2015 18:05 24,1 C 56 % 1017,5 hPa 0,0 l/m 4,7 km/h (1 Bft) SO 134 5 min 0,000 mm 1,0 UV-I 310 W/m 14,8 C 24,1 C 7,9 km/h (2 Bft) 0,00 %
30.06.2015 18:10 24,0 C 57 % 1017,4 hPa 0,0 l/m 6,8 km/h (2 Bft) O-SO 115 5 min 0,000 mm 1,0 UV-I 410 W/m 14,9 C 23,9 C 7,9 km/h (2 Bft) 0,00 %
30.06.2015 18:15 24,0 C 57 % 1017,3 hPa 0,0 l/m 0,0 km/h (0 Bft) O 85 5 min 0,000 mm 1,0 UV-I 761 W/m 14,9 C 24,0 C 0,0 km/h (0 Bft) 0,00 %
30.06.2015 18:20 24,0 C 54 % 1017,6 hPa 0,0 l/m 6,5 km/h (2 Bft) O-SO 123 5 min 0,000 mm 1,0 UV-I 757 W/m 14,1 C 24,0 C 11,9 km/h (2 Bft) 0,00 %
30.06.2015 18:25 24,1 C 55 % 1017,4 hPa 0,0 l/m 3,2 km/h (1 Bft) O-NO 77 5 min 0,000 mm 1,0 UV-I 729 W/m 14,5 C 24,1 C 4,0 km/h (1 Bft) 0,00 %
30.06.2015 18:30 24,3 C 52 % 1017,4 hPa 0,0 l/m 4,0 km/h (1 Bft) O-SO 115 5 min 0,000 mm 1,0 UV-I 711 W/m 13,8 C 24,3 C 7,9 km/h (2 Bft) 0,00 %
30.06.2015 18:35 24,7 C 49 % 1017,2 hPa 0,0 l/m 3,2 km/h (1 Bft) O-NO 71 5 min 0,000 mm 1,0 UV-I 454 W/m 13,3 C 24,7 C 7,9 km/h (2 Bft) 0,00 %
30.06.2015 18:40 24,9 C 50 % 1017,4 hPa 0,0 l/m 1,8 km/h (1 Bft) NO 52 5 min 0,000 mm 1,0 UV-I 331 W/m 13,7 C 24,9 C 4,0 km/h (1 Bft) 0,00 %
30.06.2015 18:45 24,9 C 50 % 1017,3 hPa 0,0 l/m 0,7 km/h (0 Bft) N-NO 23 5 min 0,000 mm 1,0 UV-I 610 W/m 13,7 C 24,9 C 4,0 km/h (1 Bft) 0,00 %
30.06.2015 18:50 24,9 C 51 % 1017,4 hPa 0,0 l/m 3,2 km/h (1 Bft) O-SO 117 5 min 0,000 mm 1,0 UV-I 581 W/m 14,1 C 24,9 C 4,0 km/h (1 Bft) 0,00 %
30.06.2015 18:55 24,8 C 50 % 1017,3 hPa 0,0 l/m 2,2 km/h (1 Bft) O 100 5 min 0,000 mm 1,0 UV-I 565 W/m 13,7 C 24,8 C 4,0 km/h (1 Bft) 0,00 %
30.06.2015 19:00 24,7 C 51 % 1017,2 hPa 0,0 l/m 2,2 km/h (1 Bft) O-NO 69 5 min 0,000 mm 1,0 UV-I 553 W/m 13,9 C 24,7 C 4,0 km/h (1 Bft) 0,00 %
30.06.2015 19:05 24,9 C 50 % 1017,3 hPa 0,0 l/m 0,0 km/h (0 Bft) NO 39 5 min 0,000 mm 1,0 UV-I 252 W/m 13,7 C 24,9 C 0,0 km/h (0 Bft) 0,00 %
30.06.2015 19:10 25,0 C 49 % 1017,2 hPa 0,0 l/m 0,0 km/h (0 Bft) O-NO 69 5 min 0,000 mm 1,0 UV-I 480 W/m 13,5 C 25,0 C 0,0 km/h (0 Bft) 0,00 %
30.06.2015 19:15 25,1 C 47 % 1017,2 hPa 0,0 l/m 5,4 km/h (1 Bft) O 92 5 min 0,000 mm 1,0 UV-I 417 W/m 13,0 C 25,1 C 7,9 km/h (2 Bft) 0,00 %
30.06.2015 19:20 25,0 C 48 % 1017,3 hPa 0,0 l/m 5,4 km/h (1 Bft) O 86 5 min 0,000 mm 1,0 UV-I 459 W/m 13,2 C 25,0 C 7,9 km/h (2 Bft) 0,00 %
30.06.2015 19:25 24,8 C 48 % 1017,3 hPa 0,0 l/m 2,2 km/h (1 Bft) S-SO 157 5 min 0,000 mm 1,0 UV-I 441 W/m 13,0 C 24,8 C 4,0 km/h (1 Bft) 0,00 %
30.06.2015 19:30 24,8 C 49 % 1017,2 hPa 0,0 l/m 9,0 km/h (2 Bft) O-SO 114 5 min 0,000 mm 1,0 UV-I 155 W/m 13,3 C 24,2 C 11,9 km/h (2 Bft) 0,00 %
30.06.2015 19:35 24,9 C 49 % 1017,3 hPa 0,0 l/m 2,9 km/h (1 Bft) O-SO 114 5 min 0,000 mm 1,0 UV-I 148 W/m 13,4 C 24,9 C 4,0 km/h (1 Bft) 0,00 %
30.06.2015 19:40 24,9 C 49 % 1017,4 hPa 0,0 l/m 0,0 km/h (0 Bft) O 90 5 min 0,000 mm 1,0 UV-I 130 W/m 13,4 C 24,9 C 0,0 km/h (0 Bft) 0,00 %
30.06.2015 19:45 24,7 C 49 % 1017,4 hPa 0,0 l/m 2,2 km/h (1 Bft) O 98 5 min 0,000 mm 0,0 UV-I 137 W/m 13,3 C 24,7 C 4,0 km/h (1 Bft) 0,00 %
30.06.2015 19:50 24,3 C 50 % 1017,5 hPa 0,0 l/m 4,3 km/h (1 Bft) O-NO 78 5 min 0,000 mm 0,0 UV-I 201 W/m 13,2 C 24,3 C 7,9 km/h (2 Bft) 0,00 %
30.06.2015 19:55 24,1 C 52 % 1017,5 hPa 0,0 l/m 0,0 km/h (0 Bft) NO 48 5 min 0,000 mm 0,0 UV-I 105 W/m 13,6 C 24,1 C 0,0 km/h (0 Bft) 0,00 %
30.06.2015 20:00 23,9 C 53 % 1017,8 hPa 0,0 l/m 0,7 km/h (0 Bft) O 85 5 min 0,000 mm 0,0 UV-I 106 W/m 13,7 C 23,9 C 4,0 km/h (1 Bft) 0,00 %
30.06.2015 20:05 23,8 C 52 % 1017,8 hPa 0,0 l/m 1,4 km/h (1 Bft) O 88 5 min 0,000 mm 0,0 UV-I 88 W/m 13,3 C 23,8 C 4,0 km/h (1 Bft) 0,00 %
30.06.2015 20:10 23,8 C 53 % 1017,9 hPa 0,0 l/m 0,4 km/h (0 Bft) O 89 5 min 0,000 mm 0,0 UV-I 77 W/m 13,6 C 23,8 C 4,0 km/h (1 Bft) 0,00 %
30.06.2015 20:15 23,7 C 53 % 1017,8 hPa 0,0 l/m 0,0 km/h (0 Bft) O 93 5 min 0,000 mm 0,0 UV-I 82 W/m 13,5 C 23,7 C 0,0 km/h (0 Bft) 0,00 %
30.06.2015 20:20 23,5 C 53 % 1017,7 hPa 0,0 l/m 0,0 km/h (0 Bft) NO 44 5 min 0,000 mm 0,0 UV-I 55 W/m 13,4 C 23,5 C 0,0 km/h (0 Bft) 0,00 %
30.06.2015 20:25 23,3 C 54 % 1018,0 hPa 0,0 l/m 0,4 km/h (0 Bft) SO 132 0 min 0,000 mm 0,0 UV-I 30 W/m 13,5 C 23,3 C 4,0 km/h (1 Bft) 0,00 %
30.06.2015 20:30 23,1 C 54 % 1017,8 hPa 0,0 l/m 0,0 km/h (0 Bft) O 100 0 min 0,000 mm 0,0 UV-I 22 W/m 13,3 C 23,1 C 0,0 km/h (0 Bft) 0,00 %
30.06.2015 20:35 22,9 C 55 % 1017,8 hPa 0,0 l/m 0,0 km/h (0 Bft) NO 36 0 min 0,000 mm 0,0 UV-I 17 W/m 13,4 C 22,9 C 0,0 km/h (0 Bft) 0,00 %
30.06.2015 20:40 22,7 C 57 % 1017,7 hPa 0,0 l/m 0,0 km/h (0 Bft) O-SO 104 0 min 0,000 mm 0,0 UV-I 9 W/m 13,7 C 22,7 C 0,0 km/h (0 Bft) 0,00 %
30.06.2015 20:45 22,4 C 57 % 1017,9 hPa 0,0 l/m 0,4 km/h (0 Bft) O 99 0 min 0,000 mm 0,0 UV-I 5 W/m 13,5 C 22,4 C 4,0 km/h (1 Bft) 0,00 %
30.06.2015 20:50 22,1 C 59 % 1017,9 hPa 0,0 l/m 0,0 km/h (0 Bft) O-NO 78 0 min 0,000 mm 0,0 UV-I 1 W/m 13,7 C 22,1 C 0,0 km/h (0 Bft) 0,00 %
30.06.2015 20:55 21,9 C 58 % 1017,8 hPa 0,0 l/m 0,0 km/h (0 Bft) NO 47 0 min 0,000 mm 0,0 UV-I 0 W/m 13,3 C 21,9 C 0,0 km/h (0 Bft) 0,00 %
30.06.2015 21:00 21,8 C 59 % 1017,9 hPa 0,0 l/m 0,0 km/h (0 Bft) NO 41 0 min 0,000 mm 0,0 UV-I 0 W/m 13,4 C 21,8 C 0,0 km/h (0 Bft) 0,00 %
30.06.2015 21:05 21,6 C 60 % 1017,9 hPa 0,0 l/m 0,0 km/h (0 Bft) NO 55 0 min 0,000 mm 0,0 UV-I 0 W/m 13,5 C 21,6 C 0,0 km/h (0 Bft) 0,00 %
30.06.2015 21:10 21,5 C 59 % 1018,0 hPa 0,0 l/m 1,4 km/h (1 Bft) O-SO 107 0 min 0,000 mm 0,0 UV-I 0 W/m 13,1 C 21,5 C 4,0 km/h (1 Bft) 0,00 %
30.06.2015 21:15 21,3 C 59 % 1018,1 hPa 0,0 l/m 0,0 km/h (0 Bft) O-SO 122 0 min 0,000 mm 0,0 UV-I 0 W/m 13,0 C 21,3 C 0,0 km/h (0 Bft) 0,00 %
30.06.2015 21:20 21,3 C 60 % 1018,3 hPa 0,0 l/m 0,0 km/h (0 Bft) O 101 0 min 0,000 mm 0,0 UV-I 0 W/m 13,2 C 21,3 C 0,0 km/h (0 Bft) 0,00 %
30.06.2015 21:25 21,2 C 60 % 1018,2 hPa 0,0 l/m 0,0 km/h (0 Bft) O-NO 67 0 min 0,000 mm 0,0 UV-I 0 W/m 13,1 C 21,2 C 0,0 km/h (0 Bft) 0,00 %
30.06.2015 21:30 21,0 C 61 % 1018,3 hPa 0,0 l/m 0,0 km/h (0 Bft) N 352 0 min 0,000 mm 0,0 UV-I 0 W/m 13,2 C 21,0 C 0,0 km/h (0 Bft) 0,00 %
30.06.2015 21:35 20,9 C 61 % 1018,3 hPa 0,0 l/m 0,0 km/h (0 Bft) O-SO 112 0 min 0,000 mm 0,0 UV-I 0 W/m 13,1 C 20,9 C 0,0 km/h (0 Bft) 0,00 %
30.06.2015 21:40 20,8 C 61 % 1018,4 hPa 0,0 l/m 0,0 km/h (0 Bft) O-NO 67 0 min 0,000 mm 0,0 UV-I 0 W/m 13,0 C 20,8 C 0,0 km/h (0 Bft) 0,00 %
30.06.2015 21:45 20,6 C 63 % 1018,4 hPa 0,0 l/m 0,0 km/h (0 Bft) O-NO 64 0 min 0,000 mm 0,0 UV-I 0 W/m 13,3 C 20,6 C 0,0 km/h (0 Bft) 0,00 %
30.06.2015 21:50 20,4 C 65 % 1018,5 hPa 0,0 l/m 0,0 km/h (0 Bft) O-NO 65 0 min 0,000 mm 0,0 UV-I 0 W/m 13,6 C 20,4 C 0,0 km/h (0 Bft) 0,00 %
30.06.2015 21:55 20,1 C 68 % 1018,5 hPa 0,0 l/m 0,0 km/h (0 Bft) NO 44 0 min 0,000 mm 0,0 UV-I 0 W/m 14,0 C 20,1 C 0,0 km/h (0 Bft) 0,00 %
30.06.2015 22:00 19,8 C 68 % 1018,5 hPa 0,0 l/m 0,0 km/h (0 Bft) O-NO 61 0 min 0,000 mm 0,0 UV-I 0 W/m 13,7 C 19,8 C 0,0 km/h (0 Bft) 0,00 %
30.06.2015 22:05 19,5 C 70 % 1018,8 hPa 0,0 l/m 0,0 km/h (0 Bft) NO 46 0 min 0,000 mm 0,0 UV-I 0 W/m 13,9 C 19,5 C 0,0 km/h (0 Bft) 0,00 %
30.06.2015 22:10 19,2 C 70 % 1018,7 hPa 0,0 l/m 0,0 km/h (0 Bft) NO 44 0 min 0,000 mm 0,0 UV-I 0 W/m 13,6 C 19,2 C 0,0 km/h (0 Bft) 0,00 %
30.06.2015 22:15 19,0 C 70 % 1018,6 hPa 0,0 l/m 0,0 km/h (0 Bft) O-NO 58 0 min 0,000 mm 0,0 UV-I 0 W/m 13,4 C 19,0 C 0,0 km/h (0 Bft) 0,00 %
30.06.2015 22:20 18,9 C 71 % 1018,6 hPa 0,0 l/m 0,0 km/h (0 Bft) NO 45 0 min 0,000 mm 0,0 UV-I 0 W/m 13,5 C 18,9 C 0,0 km/h (0 Bft) 0,00 %
30.06.2015 22:25 18,8 C 72 % 1018,7 hPa 0,0 l/m 0,0 km/h (0 Bft) NO 44 0 min 0,000 mm 0,0 UV-I 0 W/m 13,6 C 18,8 C 0,0 km/h (0 Bft) 0,00 %
30.06.2015 22:30 18,6 C 72 % 1018,7 hPa 0,0 l/m 0,0 km/h (0 Bft) NO 47 0 min 0,000 mm 0,0 UV-I 0 W/m 13,4 C 18,6 C 0,0 km/h (0 Bft) 0,00 %
30.06.2015 22:35 18,5 C 73 % 1018,9 hPa 0,0 l/m 0,0 km/h (0 Bft) NO 43 0 min 0,000 mm 0,0 UV-I 0 W/m 13,6 C 18,5 C 0,0 km/h (0 Bft) 0,00 %
30.06.2015 22:40 18,3 C 74 % 1018,7 hPa 0,0 l/m 0,0 km/h (0 Bft) NO 42 0 min 0,000 mm 0,0 UV-I 0 W/m 13,6 C 18,3 C 0,0 km/h (0 Bft) 0,00 %
30.06.2015 22:45 18,1 C 75 % 1018,9 hPa 0,0 l/m 0,0 km/h (0 Bft) N-NO 29 0 min 0,000 mm 0,0 UV-I 0 W/m 13,6 C 18,1 C 0,0 km/h (0 Bft) 0,00 %
30.06.2015 22:50 18,0 C 77 % 1019,0 hPa 0,0 l/m 0,0 km/h (0 Bft) NO 42 0 min 0,000 mm 0,0 UV-I 0 W/m 13,9 C 18,0 C 0,0 km/h (0 Bft) 0,00 %
30.06.2015 22:55 17,8 C 79 % 1019,0 hPa 0,0 l/m 0,0 km/h (0 Bft) NO 44 0 min 0,000 mm 0,0 UV-I 0 W/m 14,1 C 17,8 C 0,0 km/h (0 Bft) 0,00 %
30.06.2015 23:00 17,7 C 80 % 1019,1 hPa 0,0 l/m 0,0 km/h (0 Bft) NO 47 0 min 0,000 mm 0,0 UV-I 0 W/m 14,2 C 17,7 C 0,0 km/h (0 Bft) 0,00 %
30.06.2015 23:05 17,5 C 81 % 1019,2 hPa 0,0 l/m 0,0 km/h (0 Bft) NO 36 0 min 0,000 mm 0,0 UV-I 0 W/m 14,2 C 17,5 C 0,0 km/h (0 Bft) 0,00 %
30.06.2015 23:10 17,4 C 82 % 1019,2 hPa 0,0 l/m 0,0 km/h (0 Bft) NO 34 0 min 0,000 mm 0,0 UV-I 0 W/m 14,3 C 17,4 C 0,0 km/h (0 Bft) 0,00 %
30.06.2015 23:15 17,3 C 83 % 1019,4 hPa 0,0 l/m 0,0 km/h (0 Bft) NO 34 0 min 0,000 mm 0,0 UV-I 0 W/m 14,4 C 17,3 C 0,0 km/h (0 Bft) 0,00 %
30.06.2015 23:20 17,2 C 82 % 1019,2 hPa 0,0 l/m 0,0 km/h (0 Bft) NO 35 0 min 0,000 mm 0,0 UV-I 0 W/m 14,1 C 17,2 C 0,0 km/h (0 Bft) 0,00 %
30.06.2015 23:25 17,1 C 82 % 1019,3 hPa 0,0 l/m 0,0 km/h (0 Bft) NO 35 0 min 0,000 mm 0,0 UV-I 0 W/m 14,0 C 17,1 C 0,0 km/h (0 Bft) 0,00 %
30.06.2015 23:30 17,0 C 82 % 1019,4 hPa 0,0 l/m 0,0 km/h (0 Bft) NO 35 0 min 0,000 mm 0,0 UV-I 0 W/m 13,9 C 17,0 C 0,0 km/h (0 Bft) 0,00 %
30.06.2015 23:35 16,8 C 82 % 1019,5 hPa 0,0 l/m 0,0 km/h (0 Bft) NO 35 0 min 0,000 mm 0,0 UV-I 0 W/m 13,7 C 16,8 C 0,0 km/h (0 Bft) 0,00 %
30.06.2015 23:40 16,7 C 82 % 1019,5 hPa 0,0 l/m 0,0 km/h (0 Bft) NO 40 0 min 0,000 mm 0,0 UV-I 0 W/m 13,6 C 16,7 C 0,0 km/h (0 Bft) 0,00 %
30.06.2015 23:45 16,6 C 83 % 1019,5 hPa 0,0 l/m 0,0 km/h (0 Bft) O-NO 74 0 min 0,000 mm 0,0 UV-I 0 W/m 13,7 C 16,6 C 0,0 km/h (0 Bft) 0,00 %
30.06.2015 23:50 16,5 C 83 % 1019,7 hPa 0,0 l/m 0,0 km/h (0 Bft) NO 54 0 min 0,000 mm 0,0 UV-I 0 W/m 13,6 C 16,5 C 0,0 km/h (0 Bft) 0,00 %
30.06.2015 23:55 16,5 C 82 % 1019,5 hPa 0,0 l/m 0,0 km/h (0 Bft) NO 43 0 min 0,000 mm 0,0 UV-I 0 W/m 13,4 C 16,5 C 0,0 km/h (0 Bft) 0,00 %
30.06.2015 23:59 16,5 C 82 % 1020,5 hPa 0,0 l/m 0,0 km/h (0 Bft) NO 43 0 min 0,000 mm 0,0 UV-I 0 W/m 13,4 C 16,5 C 0,0 km/h (0 Bft) 0,00 %
_ Min-Zeit 05:20 14:15 17:55 - 00:00 - - - - - - 13:15 05:20 00:00 00:00
Minimum _ 12,4 C 34 % 1017,2 hPa - 0,0 km/h (0 Bft) - - - - - - 11,3 C 12,4 C 0,0 km/h (0 Bft) 0,00 %
_ Max-Zeit 14:10 05:40 00:55 00:00 19:30 - - 05:45 00:00 12:35 14:00 18:10 14:10 18:20 00:00
Maximum _ 29,0 C 97 % 1021,8 hPa 0,0 l/m 9,0 km/h
O-SO (2 Bft)
- - 5 min 0,000 mm 6,0 UV-I 1137 W/m 14,9 C 29,0 C 11,9 km/h
O-SO (2 Bft)
0,00 %
Durchschnitt _ 20,8 C 65 % 1019,4 hPa #0,0 l/m 0,7 km/h (0 Bft) O - #11:20 h #0,000 mm 2,4 UV-I 455 W/m 13,2 C 20,8 C 1,4 km/h (1 Bft) 0,00 %